Location: West Sayville
(40.7279°N, 73.0976°W)
Time: 04:50:00
(UTC+00:00)

Cosmos 2058 - Pass Details

Date: 29 October 2020
Orbit: 562 x 583 km, 82.5° (Epoch: 29 November)

Event Time Altitude Azimuth Distance (km) Brightness Sun altitude
Rises 22:19:37 0° 9° (N) 2,762 6.2 -5.9°
Reaches altitude 10° 22:22:25 10° 29° (NNE) 1,861 5.1 -6.4°
Maximum altitude 22:25:12 18° 72° (ENE) 1,439 4.3 -7.0°
Drops below altitude 10° 22:27:58 10° 115° (ESE) 1,855 5.0 -7.5°
Sets 22:30:45 0° 135° (SE) 2,749 6.1 -8.0°
